Regional Weather Roundup
Issued by NWS State College, PA

Home | Current Version | Previous Version | Text Only | Print | Product List | Glossary On
Versions: 1 2 3 4 5 6 7 8 9 10 11 12 13 14 15 16 17 18 19 20 21 22 23 24 25 26 27 28 29 30 31 32 33 34 35 36 37 38 39 40 41 42 43 44 45 46 47 48 49 50
000
ASUS41 KCTP 020603
RWRCTP

REGIONAL WEATHER ROUNDUP
NATIONAL WEATHER SERVICE STATE COLLEGE PA
100 AM EST FRI DEC 02 2016

Note: "fair" indicates few or no clouds below 12,000 feet with no
significant weather and/or obstructions to visibility.

* = STATION THAT DOES NOT REPORT PRECIPITATION /E.G. RAIN...SNOW...ETC/
    THUNDER OR FOG.

PAZ002>004-007>009-013>016-020>023-029>032-020700-
WESTERN PENNSYLVANIA

CITY           SKY/WX    TMP DP  RH WIND       PRES   REMARKS
ERIE           LGT RAIN  38  35  89 SW12      29.86R
MEADVILLE      CLOUDY    36  30  79 SW14      29.88R
FRANKLIN*        N/A     34  28  80 SW12      29.91R
NEW CASTLE     CLOUDY    37  30  75 W13       29.95R
BEAVER COUNTY  NOT AVBL
BUTLER*        CLOUDY    36  27  69 SW12G17   29.97R
PITTSBURGH INT CLOUDY    39  29  67 W10       29.95R
PITTSBURGH     CLOUDY    37  25  61 W12       29.95R
INDIANA*       CLOUDY    36  30  80 W14       29.95S
LATROBE        CLOUDY    37  28  70 SW10G16   29.97R
WASHINGTON CO* CLOUDY    37  25  60 SW9       29.98R
$$

PAZ004>006-010>012-017>019-024>028-033>037-041-042-045-046-049>053-020700-
CENTRAL PENNSYLVANIA

CITY           SKY/WX    TMP DP  RH WIND       PRES   REMARKS
BRADFORD       MIX PCPN  33  31  92 SW10G18   29.81R
DUBOIS         CLOUDY    35  28  75 SW16G23   29.86S
CLEARFIELD     CLOUDY    36  29  75 SW12G24   29.88R
JOHNSTOWN      CLOUDY    33  26  75 W14       29.89R
ALTOONA        CLOUDY    37  27  67 W12       29.92S
STATE COLLEGE  CLOUDY    37  29  73 W17       29.89S
WILLIAMSPORT   CLOUDY    41  28  60 W12       29.88R
SELINSGROVE    CLOUDY    39  29  67 SW5       29.91S
FT INDIANTOWN  PTCLDY    39  26  61 W6        29.90S
CAPITAL CITY   PTCLDY    41  26  55 W8        29.92S
HARRISBURG     PTCLDY    42  29  59 W9G18     29.92R
YORK           CLOUDY    40  29  64 W8        29.93S
$$

PAZ038>040-043-044-047-048-054-055-060>062-067>071-020700-
EASTERN PENNSYLVANIA

CITY           SKY/WX    TMP DP  RH WIND       PRES   REMARKS
SCRANTON       CLOUDY    38  28  67 SW8       29.84R
MOUNT POCONO   CLOUDY    33  25  72 W13G25    29.80R
ALLENTOWN      PTCLDY    39  26  59 W10       29.87S
QUAKERTOWN*    CLEAR     37  27  65 W6        29.89R
READING        PTCLDY    37  26  64 W7        29.89S
LANCASTER      CLEAR     40  30  67 W15       29.90S
COATESVILLE    CLEAR     39  28  65 W12       29.90S
POTTSTOWN      PTCLDY    39  26  59 SW6       29.91R
BLUE BELL      PTCLDY    37  28  70 SW3       29.89R
DOYLESTOWN     PTCLDY    40  26  57 W6        29.87S
WILLOW GROVE   NOT AVBL
NORTH PHILA    CLEAR     41  27  57 SW8       29.92R
PHILADELPHIA   CLEAR     43  28  55 W16       29.92S
$$




USA.gov is the U.S. government's official web portal to all federal, state and local government web resources and services.